Zurück zum Katalog

COSMOS 1913

AktivMilitärPO
NORAD 18792·PAYLOAD·🇷🇺 Russia

Gestartet Jan 15, 1988 von Plesetsk Cosmodrome

Loading…

Nächste Überflüge (nächste 24 Stunden)

TLE

AktuellSource: Space-Track

Epoche: Sep 14, 2026, 04:31 UTC

1 18792U 88002E   26257.18829707  .00000038  00000-0  14381-3 0  9990
2 18792  82.6032 159.6734 0012535 222.6556 303.9086 12.65751939786018

Verfolge COSMOS 1913 in Echtzeit mit AllMySat

Download on the App Store